Weather History for MKJP - November, 2012

Change the Weather History Date:

Wednesday, November 7, 2012

  Actual Average Record
Temperature  
Mean Temperature 84 °F -  
Max Temperature 88 °F 85 °F 91 °F (1996)
Min Temperature 80 °F 76 °F 73 °F (2010)
Cooling Degree Days 19    
Growing Degree Days 34 (Base 50)    
Moisture  
Dew Point 75 °F    
Average Humidity 75    
Maximum Humidity 84    
Minimum Humidity 57    
Precipitation  
Precipitation 0.00 in - - ()
Sea Level Pressure  
Sea Level Pressure 29.89 in    
Wind  
Wind Speed 6 mph ()    
Max Wind Speed 12 mph    
Max Gust Speed -    
Visibility 5.6 miles    
Events Thunderstorm    
Averages and records for this station are not official NWS values.
T = Trace of Precipitation, MM = Missing Value Source: Averaged Metar Reports

Daily Weather History Graph

Daily Weather History Graph

Search for Another Location

Airport or City:

Trip Planner

Search our weather history database for the weather conditions in past years. The results will help you decide how hot, cold, wet, or windy it might be!

Date:

Astronomy

Nov. 07, 2012 Rise Set
Actual Time 6:09 AM EST 5:32 PM EST
Civil Twilight 5:46 AM EST 5:55 PM EST
Nautical Twilight 5:20 AM EST 6:21 PM EST
Astronomical Twilight 4:54 AM EST 6:46 PM EST
Moon No Moon Rise 12:47 PM EST (11/7)
Length of Visible Light 12h 08m
Length of Day
11h 23m
Last Quarter, 43% of the Moon is Illuminated
Nov 7
Last Quarter
Nov 13
New
Nov 20
First Quarter
Nov 28
Full
Dec 6
Last Quarter

Hourly Weather History & Observations

Time (EST) Temp. Heat Index Dew Point Humidity Pressure Visibility Wind Dir Wind Speed Gust Speed Precip Events Conditions
12:00 AM 82.4 °F 89.5 °F 75.2 °F 79% 29.92 in 6.2 mi North 6.9 mph - N/A   Mostly Cloudy
1:00 AM 82 °F - 75 °F 75% 29.92 in 4 mi NE 4.6 mph - -   Haze
1:00 AM 82.4 °F 89.5 °F 75.2 °F 79% 29.92 in 6.2 mi NE 4.6 mph - N/A   Scattered Clouds
2:00 AM 80.6 °F 85.4 °F 73.4 °F 79% 29.86 in 6.2 mi ESE 2.3 mph - N/A   Mostly Cloudy
3:00 AM 80.6 °F 86.2 °F 75.2 °F 84% 29.86 in 6.2 mi North 3.5 mph - N/A   Scattered Clouds
4:00 AM 80 °F - 75 °F 80% 29.86 in 4 mi NNW 4.6 mph - -   Haze
4:00 AM 80.6 °F 86.2 °F 75.2 °F 84% 29.86 in 6.2 mi NNW 4.6 mph - N/A   Partly Cloudy
5:00 AM 80.6 °F 85.4 °F 73.4 °F 79% 29.86 in 6.2 mi North 5.8 mph - N/A   Partly Cloudy
6:00 AM 80.6 °F 85.4 °F 73.4 °F 79% 29.86 in 6.2 mi North 5.8 mph - N/A   Partly Cloudy
7:00 AM 81 °F - 74 °F 72% 29.90 in 4 mi North 9.2 mph - -   Haze
7:00 AM 80.6 °F 85.4 °F 73.4 °F 79% 29.89 in 6.2 mi North 9.2 mph - N/A   Partly Cloudy
8:00 AM 82.4 °F 88.2 °F 73.4 °F 74% 29.92 in 6.2 mi NNW 5.8 mph - N/A   Partly Cloudy
9:00 AM 84.2 °F 92.3 °F 75.2 °F 74% 29.92 in 6.2 mi NW 4.6 mph - N/A   Partly Cloudy
10:00 AM 87 °F - 76 °F 61% 29.94 in 4 mi West 4.6 mph - -   Haze
10:00 AM 86.0 °F 95.1 °F 75.2 °F 70% 29.92 in 6.2 mi West 4.6 mph - N/A   Partly Cloudy
11:00 AM 86.0 °F 93.4 °F 73.4 °F 66% 29.92 in 6.2 mi SSW 8.1 mph - N/A   Partly Cloudy
12:00 PM 86.0 °F 93.4 °F 73.4 °F 66% 29.89 in 6.2 mi South 9.2 mph - N/A   Partly Cloudy
1:00 PM 88 °F - 75 °F 57% 29.88 in 4 mi South 9.2 mph - -   Haze
1:00 PM 87.8 °F 97.6 °F 75.2 °F 66% 29.86 in 6.2 mi South 9.2 mph - N/A   Partly Cloudy
2:00 PM 87.8 °F 97.6 °F 75.2 °F 66% 29.86 in 6.2 mi South 8.1 mph - N/A   Partly Cloudy
3:00 PM 86.0 °F 96.9 °F 77.0 °F 74% 29.86 in 6.2 mi SSE 11.5 mph - N/A   Partly Cloudy
4:00 PM 85 °F - 76 °F 69% 29.86 in 4 mi SSE 9.2 mph - -   Haze
4:00 PM 86.0 °F 96.9 °F 77.0 °F 74% 29.86 in 6.2 mi SSE 9.2 mph - N/A   Partly Cloudy
5:00 PM 82.4 °F 89.5 °F 75.2 °F 79% 29.86 in 6.2 mi SSE 5.8 mph - N/A Thunderstorm Partly Cloudy
6:00 PM 82.4 °F 89.5 °F 75.2 °F 79% 29.86 in 6.2 mi SSE 5.8 mph - N/A Thunderstorm Partly Cloudy
7:00 PM 83 °F - 77 °F 77% 29.88 in 3 mi South 4.6 mph - -   Haze
7:00 PM 84.2 °F 94.1 °F 77.0 °F 79% 29.86 in 6.2 mi South 4.6 mph - N/A   Partly Cloudy
8:00 PM 82.4 °F 89.5 °F 75.2 °F 79% 29.89 in 6.2 mi WNW 4.6 mph - N/A   Partly Cloudy
9:00 PM 82.4 °F 89.5 °F 75.2 °F 79% 29.92 in 6.2 mi WNW 5.8 mph - N/A   Partly Cloudy
10:00 PM 82 °F - 75 °F 75% 29.94 in 3 mi NW 8.1 mph - -   Haze
10:00 PM 82.4 °F 89.5 °F 75.2 °F 79% 29.92 in 6.2 mi NW 5.8 mph - N/A   Partly Cloudy
11:00 PM 80.6 °F 86.2 °F 75.2 °F 84% 29.92 in 6.2 mi North 10.4 mph - N/A   Scattered Clouds